Location: Newark
(7.0858°N, 171.3717°E)
Time: 16:44:31
(UTC+00:00)

Altair - Pass Details

Date: 26 November 2020
Orbit: 1501 x 1682 km, 47.2° (Epoch: 20 January)

Event Time Altitude Azimuth Distance (km) Brightness Sun altitude
Exits shadow 16:06:14 13° 7° (N) 3,443 9.2 -34.2°
Maximum altitude 16:11:06 19° 43° (NE) 3,040 9.2 -33.0°
Drops below altitude 10° 16:17:22 10° 85° (E) 3,764 10.3 -31.6°
Sets 16:21:44 0° 101° (ESE) 4,784 11.2 -30.6°
